Content
SEND FEEDBACK

Daily
Averages
Monthly
Summary
Burkina Faso

OUAGADOUGOU, BURKINA FASO


Home > Africa > Burkina Faso
Elevation: 306 meters     Latitude: 12 21N     Longitude: 001 31W

WEATHER
 
SELECT A DAY
Number of Records: 104,701;   Date Range: 4/27/97 - 10/18/14
 
SHARE

PRINT THIS DATA

[ ← Previous Day ]
WEATHER ALMANAC - 23 JANUARY, 2013
[ Next Day → ]
[ °F ]   °C
Weather ElementAverageHighLow
Temperature28.1 °C37 °C (3:00 pm)17.8 °C (6:00 am)
Dewpoint0.3 °C8 °C (7:30 am)-5 °C (10:30 am)
Humidity20.1 %43 % (2:30 am)6 % (12:00 pm)
Barometer1012.5 hPa1015.2 hPa (9:00 am)1009.1 hPa (6:00 pm)
Wind Speed6.9 km/h14.8 km/h (12:00 pm)
Weather ElementAverage
Visibility4.3 km
Wind DirectionWSW (232.6 °)

Weather ElementTotal
Precipitation---
Cooling Degree Days9.1 (Base 18.3)
Growing Degree Days17.4 (Base 10)
Averaged from 50 records on 23 January, 2013
WEATHER CONDITIONS BREAKOUT
WIND DIRECTION BREAKOUT
WEATHER BY HOUR - 23 JANUARY, 2013
[ °F ]   °C
Local TimeTemperatureDewpointHumidityBarometerVisibilityWind DirectionWind SpeedGust SpeedPrecipitationEventsConditions
12:00 AM22 °C7 °C38 %1013.2 hPa3.5 kmWNW (300°)3.7 km/hHaze
12:30 AM23 °C7 °C36 %1013.2 hPa3.5 kmCalmHaze
1:00 AM21 °C7 °C40 %1013.2 hPa3.5 kmNW (320°)1.9 km/hHaze
1:30 AM21 °C7 °C40 %1013.2 hPa3.5 kmNW (310°)5.6 km/hHaze
2:00 AM21 °C7 °C40 %1013.2 hPa3.5 kmNW (310°)3.7 km/hHaze
2:30 AM20 °C7 °C43 %1012.2 hPa3.5 kmNW (310°)3.7 km/hHaze
3:00 AM20 °C5 °C37 %1012.2 hPa3.5 kmNNW (340°)5.6 km/hHaze
3:30 AM21 °C4 °C33 %1012.2 hPa3.5 kmNNW (340°)3.7 km/hHaze
4:00 AM20 °C6 °C40 %1012.2 hPa4 kmNW (320°)3.7 km/hHaze
4:30 AM20 °C5 °C37 %1012.2 hPa4 kmNW (310°)3.7 km/hHaze
5:00 AM20 °C5 °C37 %1012.2 hPa4 kmNNW (330°)5.6 km/hHaze
5:30 AM19 °C5 °C40 %1012.2 hPa4.5 kmNNW (330°)5.6 km/hHaze
6:00 AM20 °C4 °C35 %1013.2 hPa4.5 kmNNW (330°)3.7 km/hHaze
6:00 AM17.8 °C7.2 °C39 %1011.2 hPa3.2 kmWest (280°)3.7 km/hWidespread Dust
6:30 AM19 °C5 °C40 %1013.2 hPa4.5 kmNNW (330°)5.6 km/hHaze
7:00 AM20 °C5 °C37 %1013.2 hPa2.6 kmNW (320°)1.9 km/hHaze
7:30 AM21 °C8 °C43 %1013.2 hPa2.6 kmCalmHaze
8:00 AM24 °C3 °C25 %1014.2 hPa1.4 kmCalmHaze
8:30 AM26 °C-1 °C17 %1014.2 hPa1.4 kmVariable3.7 km/hHaze
9:00 AM27 °C0 °C17 %1015.2 hPa1.4 kmNorth (360°)7.4 km/hHaze
9:30 AM28 °C-3 °C13 %1015.2 hPa3.5 kmNNE (30°)7.4 km/hHaze
10:00 AM30 °C-3 °C12 %1015.2 hPa3.5 kmNE (40°)9.3 km/hHaze
10:30 AM31 °C-5 °C9 %1015.2 hPa4.5 kmNE (40°)13 km/hHaze
11:00 AM32 °C-5 °C9 %1014.2 hPa4.5 kmNE (40°)13 km/hHaze
11:30 AM33 °C-4 °C9 %1014.2 hPa8 kmNE (40°)11.1 km/h
12:00 PM34 °C-3 °C9 %1013.2 hPa8 kmNE (40°)11.1 km/h
12:00 PM34.4 °C2.2 °C6 %1011.5 hPa9.7 kmNE (40°)14.8 km/hClear
12:30 PM35 °C-4 °C8 %1013.2 hPaNNE (30°)9.3 km/hClear
1:00 PM35 °C-4 °C8 %1012.2 hPaNNE (30°)7.4 km/hClear
1:30 PM36 °C-5 °C7 %1012.2 hPaVariable3.7 km/hClear
2:00 PM36 °C-5 °C7 %1011.2 hPaNNW (340°)9.3 km/hClear
2:30 PM36 °C-5 °C7 %1011.2 hPaVariable9.3 km/hClear
3:00 PM37 °C-3 °C8 %1010.2 hPaWNW (300°)9.3 km/hClear
3:30 PM37 °C-3 °C8 %1010.2 hPaNNW (330°)9.3 km/hClear
4:00 PM37 °C-3 °C8 %1010.2 hPaWest (280°)9.3 km/hClear
4:30 PM36 °C-3 °C8 %1010.2 hPaNNW (340°)11.1 km/hClear
5:00 PM35 °C-4 °C8 %1010.2 hPaNorth (350°)9.3 km/hClear
5:30 PM35 °C-3 °C9 %1011.2 hPa6 kmNNW (340°)7.4 km/h
6:00 PM34 °C-2 °C10 %1011.2 hPa4.5 kmNNW (340°)5.6 km/hHaze
6:00 PM33.9 °C6.1 °C10 %1009.1 hPa8 kmNNW (340°)3.7 km/hWidespread Dust
6:30 PM33 °C-2 °C10 %1011.2 hPa3.5 kmNorth (350°)7.4 km/hHaze
7:00 PM32 °C-1 °C12 %1012.2 hPa4.5 kmNNW (340°)7.4 km/hHaze
7:30 PM31 °C-2 °C12 %1012.2 hPa4.5 kmNNW (340°)7.4 km/hHaze
8:00 PM30 °C-2 °C12 %1012.2 hPa6 kmNorth (360°)9.3 km/h
8:30 PM30 °C-3 °C12 %1013.2 hPa6 kmNorth (350°)11.1 km/h
9:30 PM29 °C-4 °C11 %1013.2 hPaNorth (360°)11.1 km/hClear
10:00 PM28 °C-4 °C12 %1013.2 hPaNNE (20°)9.3 km/hClear
10:30 PM27 °C-3 °C14 %1013.2 hPaNorth (360°)9.3 km/hClear
11:00 PM27 °C-4 °C13 %1013.2 hPaNorth (360°)9.3 km/hClear
11:30 PM27 °C-5 °C12 %1013.2 hPaNorth (360°)9.3 km/hClear
Hourly data recorded from DFFD, located 0 kilometers away from Ouagadougou, Burkina Faso







STORIES FROM OUR PARTNERS